Regional Weather Roundup
Issued by NWS

Home | Current Version | Previous Version | Text Only | Print | Product List | Glossary Off
Versions: 1 2 3 4 5 6 7 8 9 10 11 12 13 14 15 16 17 18 19 20 21 22 23 24 25 26 27 28 29 30 31 32 33 34 35 36 37 38 39 40 41 42 43 44 45 46 47 48 49 50

000
ASUS45 KTFX 161719
RWRMT
MONTANA HOURLY WEATHER ROUNDUP
NATIONAL WEATHER SERVICE GREAT FALLS MT
1119 AM MDT WED APR 16 2014

NOTE: "FAIR" INDICATES FEW OR NO CLOUDS BELOW 12000 FEET WITH NO
SIGNIFICANT WEATHER AND/OR OBSTRUCTIONS TO VISIBILITY.

* THESE STATIONS ARE NOT UNDER NWS QUALITY CONTROL. THEY DO NOT
   REPORT WEATHER SUCH AS PRECIPITATION OR FOG.

MTZ001>007-043-161800-
WEST OF THE DIVIDE
CITY           SKY/WX    TMP DP  RH WIND       PRES   REMARKS
KALISPELL      PTSUNNY   41  36  82 S8        29.97S
MISSOULA       CLOUDY    43  36  76 CALM      30.03S
BUTTE          CLOUDY    37  14  39 NW8       29.98S WCI  31
MULLAN PASS    CLOUDY    28  25  89 VRB6      29.96R WCI  21
* ESSEX        N/A       37  34  89 SE2        N/A
* LINCOLN      N/A       34  29  82 W4G9       N/A
* LOOKOUT PASS N/A       36  27  70 NW2G8      N/A
* PLAINS APT   PTSUNNY   41  37  86 CALM      30.01F
* POLSON       N/A       45  27  49 SW3G8      N/A
* RONAN APT    CLOUDY    45  30  56 S9         N/A
* SEELEY LAKE  N/A       41  34  76 N/A        N/A
* THOMP F APT  CLOUDY    36  15  42 NW6G14     N/A   WCI  31
$$

MTZ008-052>055-161800-
SOUTHWEST MONTANA
CITY           SKY/WX    TMP DP  RH WIND       PRES   REMARKS
BOZEMAN        CLOUDY    45  21  38 W6        29.98F
DILLON         PTSUNNY   43  16  34 SW13      29.99S
W YELLOWSTONE  N/A       37  17  44 NW3        N/A
* THREE FORKS  PTSUNNY   46  21  37 SW14       N/A
* BOULDER HILL N/A       34  19  54 S3G9       N/A
* MONIDA PASS  N/A       31  12  45 NW11G16    N/A   WCI  22
* RAYNOLDS PAS N/A       39  21  48 N/A        N/A
* WHITEHALL    N/A       44  19  37 SW11G18    N/A
* WISE RIVER   N/A       38  17  42 W9G15      N/A   WCI  32
$$

MTZ009>010-012-014-046-048-049-054-161800-
EAST SLOPES AND CENTRAL MONTANA
CITY           SKY/WX    TMP DP  RH WIND       PRES   REMARKS
CUT BANK       FOG       30  27  89 NE13      29.98S WCI  20
GREAT FALLS    CLOUDY    37  32  82 NW8       29.98R WCI  31
HELENA         CLOUDY    46  23  40 W10       29.97R
MALMSTROM AFB  CLOUDY    36  32  85 N5        29.97R WCI  32
* CONRAD       PTCLDY    34  34 100 N/A        N/A
* DEARBORN     N/A       45  26  47 W1G9       N/A
* EAST GLACIER N/A       27  25  92 E5         N/A   WCI  21
* MONARCH      N/A       32  22  67 NW9        N/A   WCI  24
* PENDROY      N/A       31  31 100 N12        N/A   WCI  22
* ROGERS PASS  N/A       34  24  67 SE11G17    N/A   WCI  26
* SAINT MARY   N/A       33  29  85 NE6G12     N/A   WCI  27
* SWEET GRASS  N/A       27  27 100 NE11       N/A   WCI  17
* WHITE SULPH  N/A       42  21  43 NW10G16    N/A
$$

MTZ011-013-016-021-035-040-045-047-050-051-161800-
NORTH CENTRAL MONTANA
CITY           SKY/WX    TMP DP  RH WIND       PRES   REMARKS
HAVRE          CLOUDY    36  27  70 E6        30.04R WCI  31
LEWISTOWN      CLOUDY    34  28  79 CALM      29.98S
* CHINOOK      PTSUNNY   37  23  57 SE3       30.06R
* FORT BENTON  PTCLDY    36  32  85 E7        30.03R WCI  30
* MALTA APT    PTCLDY    37  21  52 CALM      30.04R
* CHESTER      N/A       33  31  92 SW3        N/A
* DENTON       N/A       35  32  89 E4         N/A
* GEYSER       N/A       34  31  89 NE5        N/A   WCI  29
* JUDITH GAP   N/A       33  30  89 VRB7G14    N/A   WCI  27
* LOMA         N/A       35  33  92 E6         N/A   WCI  30
$$

MTZ017>020-022>027-061-062-161800-
NORTHEAST MONTANA
CITY           SKY/WX    TMP DP  RH WIND       PRES   REMARKS
GLASGOW        CLOUDY    34  21  59 E8        30.08R WCI  27
GLENDIVE       CLOUDY    28  19  69 NE10      30.08R WCI  19
JORDAN         CLOUDY    32  21  64 NE9       30.06R WCI  24
SIDNEY         CLOUDY    30  21  69 NE10      30.12R WCI  21
WOLF POINT     CLOUDY    32  19  59 NE12      30.11R WCI  23
* BEAVER HILL  N/A       27  19  72 NE8        N/A   WCI  19
* CIRCLE       N/A       29  23  78 NE7        N/A   WCI  22
* LINDSAY DVD  N/A       27  20  75 N8         N/A   WCI  19
* NAVAJO       N/A       25  17  72 E13        N/A   WCI  13
* SACO         N/A       32  21  64 E6G11      N/A   WCI  26
$$

MTZ028>042-056>058-161800-
SOUTHCENTRAL AND SOUTHEAST MONTANA
CITY           SKY/WX    TMP DP  RH WIND       PRES   REMARKS
BAKER          SUNNY     34  19  54 NE10      30.01R WCI  26
BILLINGS       PTCLDY    39  32  76 E14       30.00R WCI  31
LIVINGSTON     CLOUDY    45  23  42 W20G28    29.96S
MILES CITY     PTSUNNY   39  21  48 N12       30.03R WCI  32
* EKALAKA APT  SUNNY     34  19  54 N7        29.95R WCI  28
* LAUREL APT   PTCLDY    45  28  51 N11        N/A
* ROUNDUP APT  PTCLDY    36  28  73 N7         N/A   WCI  30
* HYSHAM       N/A       34  22  61 N/A        N/A
* LAME DEER    N/A       32  23  69 N11        N/A   WCI  23
* REED POINT   N/A       47  23  39 W20G30     N/A
* ROSCOE HILL  N/A       40   8  26 W4G14      N/A
$$

REGIONAL REPORTS...DAKOTAS
CITY           SKY/WX    TMP DP  RH WIND       PRES   REMARKS
WILLISTON      CLOUDY    27  21  78 E14       30.12R WCI  16
DICKINSON      CLOUDY    27  21  78 NE12      30.02R WCI  16
CROSBY         LGT SNOW  25  21  85 E17       30.17R WCI  12
TIOGA          CLOUDY    23  23 100 E16       30.15R WCI  10
WATFORD CITY   CLOUDY    27  19  72 E12G17    30.10R WCI  16
BISMARCK       CLOUDY    28  21  75 NE16      30.07R WCI  16
GRAND FORKS    PTCLDY    37   7  28 E18G28    30.09R WCI  27
FARGO          LGT SNOW  30  21  69 NE20G26   30.05R WCI  17
BUFFALO SD     PTCLDY    36  19  50 NE14      29.91R WCI  27
RAPID CITY     CLOUDY    37  28  70 N24G35    29.93R WCI  26
$$

REGIONAL REPORTS...WYOMING/IDAHO/WASHINGTON
CITY           SKY/WX    TMP DP  RH WIND       PRES   REMARKS
GILLETTE       PTCLDY    43  28  56 NW20G25   29.96R
SHERIDAN       PTSUNNY   41  32  70 NW22G30   29.98R
CODY           CLOUDY    45  19  35 NW6       29.96R
YELLOWSTONE LA PTCLDY    23  16  74 E3        29.99S
SALMON         PTCLDY    45  19  35 NE5       30.02F
MULLAN PASS    CLOUDY    28  25  89 VRB6      29.96S WCI  21
SAND POINT     CLOUDY    46  32  58 S7        30.02R
SPOKANE        LGT RAIN  45  37  74 SW17      30.03R
$$

REGIONAL REPORTS...ALBERTA
CITY           SKY/WX    TMP DP  RH WIND       PRES   REMARKS
CALGARY        LGT SNOW  28  23  81 NE7       30.00S WCI  21
LETHBRIDGE     LGT SNOW  28  27  96 E7        30.04R WCI  21
MEDICINE HAT   CLOUDY    34  25  70 N5        30.08R WCI  29
EDMONTON       CLOUDY    28  21  75 SE5       30.09S WCI  22
WATERTON GATE  N/A       30  27  89 NE6        N/A   WCI  24
CARDSTON       N/A       28  28 100 E5         N/A   WCI  22
$$

REGIONAL REPORTS...SASKATCHEWAN
CITY           SKY/WX    TMP DP  RH WIND       PRES   REMARKS
SWIFT CURRENT  LGT SNOW  27  23  85 SE14      30.08R WCI  16
MOOSE JAW      LGT SNOW  25  18  75 E14       30.20R WCI  13
REGINA         CLOUDY    27  21  78 E18       30.21R WCI  14
VAL MARIE      N/A       30  21  69 SE7        N/A   WCI  23
ASSINIBOIA     N/A       27  19  72 E13        N/A   WCI  16

$$




USA.gov is the U.S. government's official web portal to all federal, state and local government web resources and services.